period_start,C,m1,H,J0,J1,J2,J3,J4,J5,JA,JB,JC,JD,JJ,JK,JN,#
2013-07-13 00:00:23,0.00,0.32,0.00,32.49,34.77,36.82,5.68,30.92,1012.46,2027.00,3274.00,3220.00,3489.00,350.36,312.94,24.01,0000 0000 0000 0000 000000
2013-07-13 00:01:24,0.00,0.32,0.00,32.51,34.77,36.81,5.82,30.88,1012.49,2027.00,3274.01,3220.00,3489.00,349.40,312.29,24.01,0000 0000 0000 0000 000000
2013-07-13 00:02:24,0.00,0.32,0.00,32.48,34.77,36.76,5.76,30.88,1012.46,2027.00,3274.01,3220.00,3489.00,350.00,312.85,24.02,0000 0000 0000 0000 000000
2013-07-13 00:03:24,0.00,0.32,0.00,32.50,34.77,36.76,5.86,30.88,1012.51,2027.00,3274.01,3220.00,3488.98,350.67,313.59,24.03,0000 0000 0000 0000 000000
2013-07-13 00:04:24,0.00,0.32,0.00,32.48,34.77,36.80,5.82,30.92,1012.39,2027.00,3274.00,3220.00,3488.95,350.36,312.94,24.03,0000 0000 0000 0000 000000
2013-07-13 00:05:24,0.00,0.32,0.00,32.50,34.77,36.83,5.89,31.00,1012.40,2027.00,3274.00,3220.00,3488.97,349.75,312.06,24.04,0000 0000 0000 0000 000000
2013-07-13 00:06:25,0.00,0.32,0.00,32.51,34.78,36.81,5.79,30.75,1012.49,2027.00,3274.00,3219.99,3488.97,349.93,312.55,24.04,0000 0000 0000 0000 000000
2013-07-13 00:07:25,0.00,0.32,0.00,32.50,34.78,36.79,5.75,30.92,1012.52,2027.00,3274.00,3219.99,3488.98,350.46,313.05,24.05,0000 0000 0000 0000 000000
2013-07-13 00:08:25,0.00,0.32,0.00,32.54,34.78,36.81,5.78,30.92,1012.55,2027.00,3274.00,3219.99,3488.98,350.50,313.48,24.05,0000 0000 0000 0000 000000
2013-07-13 00:09:25,0.00,0.32,0.00,32.51,34.78,36.84,5.88,30.96,1012.58,2026.98,3274.00,3219.99,3488.96,350.76,313.46,24.06,0000 0000 0000 0000 000000
2013-07-13 00:10:25,-0.01,0.32,0.00,32.50,34.78,36.85,5.94,31.04,1012.51,2026.99,3274.00,3219.98,3488.94,350.96,313.27,24.07,0000 0000 0000 0000 000000
2013-07-13 00:11:25,0.00,0.32,0.00,32.52,34.78,36.85,5.97,30.96,1012.51,2026.99,3274.00,3219.98,3488.94,350.06,312.89,24.07,0000 0000 0000 0000 000000
2013-07-13 00:12:26,0.00,0.32,0.00,32.57,34.78,36.85,5.77,30.38,1012.53,2026.99,3274.00,3219.99,3488.87,349.98,312.78,24.08,0000 0000 0000 0000 000000
2013-07-13 00:13:26,0.01,0.32,0.00,32.57,34.79,36.85,5.78,30.83,1012.40,2026.98,3274.00,3219.97,3488.84,349.82,312.37,24.08,0000 0000 0000 0000 000000
2013-07-13 00:14:26,0.00,0.32,0.00,32.56,34.79,36.83,5.64,31.04,1012.43,2026.99,3274.00,3219.96,3488.80,349.39,312.00,24.09,0000 0000 0000 0000 000000
2013-07-13 00:15:26,0.00,0.32,0.00,32.53,34.79,36.72,5.73,31.00,1012.36,2026.98,3273.99,3219.96,3488.75,350.08,312.63,24.10,0000 0000 0000 0000 000000
2013-07-13 00:16:27,0.01,0.32,0.00,32.54,34.79,36.78,5.63,31.00,1012.40,2026.99,3273.97,3219.94,3488.62,349.64,312.23,24.10,0000 0000 0000 0000 000000
2013-07-13 00:17:27,0.01,0.32,0.00,32.53,34.80,36.81,5.98,30.96,1012.43,2026.96,3273.95,3219.91,3488.58,350.99,313.68,24.11,0000 0000 0000 0000 000000
2013-07-13 00:18:27,0.00,0.32,0.00,32.49,34.80,36.83,5.76,31.04,1012.42,2026.98,3273.95,3219.92,3488.67,350.31,312.37,24.11,0000 0000 0000 0000 000000
2013-07-13 00:19:27,0.00,0.32,0.00,32.47,34.80,36.86,5.83,30.96,1012.38,2026.99,3273.91,3219.90,3488.67,349.63,312.30,24.12,0000 0000 0000 0000 000000
2013-07-13 00:20:28,0.02,0.32,0.00,32.47,34.80,36.79,5.78,30.50,1012.33,2026.99,3273.93,3219.83,3488.62,350.61,313.15,24.12,0000 0000 0000 0000 000000
2013-07-13 00:21:28,0.01,0.32,0.00,32.51,34.80,36.73,5.68,30.96,1012.38,2026.98,3273.92,3219.83,3488.44,348.93,311.94,24.13,0000 0000 0000 0000 000000
2013-07-13 00:22:28,0.03,0.32,0.00,32.50,34.80,36.79,5.82,30.83,1012.45,2026.99,3273.80,3219.58,3488.33,349.89,312.51,24.14,0000 0000 0000 0000 000000
2013-07-13 00:23:29,0.08,0.32,0.00,32.47,34.80,36.86,5.90,31.08,1012.41,2026.98,3273.72,3219.51,3488.23,350.50,313.07,24.14,0000 0000 0000 0000 000000
2013-07-13 00:24:29,0.02,0.32,0.00,32.47,34.80,36.83,5.71,30.92,1012.42,2026.98,3273.74,3219.54,3488.28,349.42,312.11,24.15,0000 0000 0000 0000 000000
2013-07-13 00:25:29,-0.02,0.32,0.00,32.54,34.80,36.70,5.90,30.96,1012.49,2026.98,3273.79,3219.65,3488.34,351.25,313.33,24.15,0000 0000 0000 0000 000000
2013-07-13 00:26:29,-0.02,0.32,0.00,32.56,34.80,36.49,5.65,30.67,1012.45,2026.98,3273.83,3219.64,3488.35,350.42,312.93,24.16,0000 0000 0000 0000 000000
2013-07-13 00:27:30,-0.01,0.32,0.00,32.58,34.80,36.53,5.66,30.50,1012.35,2026.99,3273.81,3219.71,3488.31,349.97,312.48,24.17,0000 0000 0000 0000 000000
2013-07-13 00:28:30,0.00,0.32,0.00,32.60,34.80,36.63,5.81,30.75,1012.34,2026.99,3273.83,3219.73,3488.30,350.20,312.40,24.17,0000 0000 0000 0000 000000
2013-07-13 00:29:30,0.01,0.32,0.00,32.61,34.80,36.72,5.79,31.08,1012.34,2026.99,3273.80,3219.60,3488.20,350.00,312.80,24.18,0000 0000 0000 0000 000000
2013-07-13 00:30:31,0.03,0.32,0.00,32.61,34.80,36.76,5.75,30.92,1012.35,2026.99,3273.62,3219.44,3488.14,349.47,311.79,24.18,0000 0000 0000 0000 000000
2013-07-13 00:31:31,0.07,0.32,0.00,32.57,34.80,36.73,5.73,30.88,1012.28,2026.99,3273.51,3219.37,3488.11,350.14,312.61,24.19,0000 0000 0000 0000 000000
2013-07-13 00:32:31,0.03,0.32,0.00,32.55,34.81,36.78,5.79,31.00,1012.28,2026.99,3273.35,3219.28,3488.06,350.13,312.63,24.20,0000 0000 0000 0000 000000
2013-07-13 00:33:31,0.06,0.32,0.00,32.60,34.81,36.65,5.67,30.88,1012.28,2026.98,3273.21,3219.13,3488.02,350.05,312.12,24.20,0000 0000 0000 0000 000000
2013-07-13 00:34:32,0.03,0.32,0.00,32.64,34.81,36.55,5.73,30.92,1012.31,2026.93,3273.11,3219.08,3488.00,350.06,312.48,24.21,0000 0000 0000 0000 000000
2013-07-13 00:35:32,0.00,0.32,0.00,32.64,34.82,36.53,5.78,30.92,1012.31,2026.96,3273.10,3219.03,3488.00,350.72,313.07,24.21,0000 0000 0000 0000 000000
2013-07-13 00:36:32,0.02,0.32,0.00,32.66,34.82,36.38,5.71,30.83,1012.33,2026.96,3273.08,3219.03,3488.00,350.32,312.63,24.22,0000 0000 0000 0000 000000
2013-07-13 00:37:32,-0.01,0.32,0.00,32.65,34.82,36.39,5.65,31.04,1012.40,2026.91,3273.03,3219.01,3488.00,349.66,312.05,24.22,0000 0000 0000 0000 000000
2013-07-13 00:38:32,-0.00,0.32,0.00,32.66,34.82,36.35,5.92,30.92,1012.38,2026.95,3273.02,3219.01,3488.00,351.15,313.45,24.23,0000 0000 0000 0000 000000
2013-07-13 00:39:33,0.02,0.32,0.00,32.67,34.82,36.52,5.53,31.13,1012.42,2026.97,3273.02,3219.02,3488.00,349.78,312.38,24.24,0000 0000 0000 0000 000000
2013-07-13 00:40:33,0.01,0.32,0.00,32.65,34.82,36.46,5.82,31.04,1012.48,2026.95,3273.03,3219.04,3488.00,350.16,312.59,24.24,0000 0000 0000 0000 000000
2013-07-13 00:41:33,-0.02,0.32,0.00,32.69,34.82,36.50,5.67,30.96,1012.42,2026.95,3273.05,3219.03,3488.00,349.59,311.97,24.25,0000 0000 0000 0000 000000
2013-07-13 00:42:33,0.01,0.32,0.00,32.69,34.82,36.47,5.79,30.58,1012.38,2026.96,3273.01,3219.01,3488.00,350.74,313.06,24.25,0000 0000 0000 0000 000000
2013-07-13 00:43:33,0.00,0.32,0.00,32.68,34.82,36.49,5.77,30.79,1012.32,2026.94,3273.00,3219.01,3488.00,350.21,312.56,24.26,0000 0000 0000 0000 000000
2013-07-13 00:44:34,-0.01,0.32,0.00,32.69,34.82,36.51,5.80,31.08,1012.27,2026.85,3273.00,3219.00,3488.00,350.35,312.68,24.27,0000 0000 0000 0000 000000
2013-07-13 00:45:34,-0.06,0.32,0.00,32.67,34.83,36.60,5.73,31.00,1012.30,2026.85,3273.00,3219.00,3488.00,350.48,312.81,24.27,0000 0000 0000 0000 000000
2013-07-13 00:46:34,-0.00,0.32,0.00,32.68,34.83,36.43,5.74,31.13,1012.36,2026.85,3273.00,3219.00,3488.00,349.68,312.12,24.28,0000 0000 0000 0000 000000
2013-07-13 00:47:34,0.00,0.32,0.00,32.71,34.83,36.47,5.68,30.92,1012.38,2026.90,3273.00,3219.01,3488.00,350.22,312.27,24.28,0000 0000 0000 0000 000000
2013-07-13 00:48:35,0.02,0.32,0.00,32.71,34.84,36.45,5.78,31.04,1012.35,2026.92,3273.01,3219.00,3488.00,349.73,312.40,24.29,0000 0000 0000 0000 000000
2013-07-13 00:49:35,0.01,0.32,0.00,32.71,34.85,36.56,5.69,30.83,1012.38,2026.93,3273.00,3219.00,3487.99,349.46,312.11,24.29,0000 0000 0000 0000 000000
2013-07-13 00:50:35,0.01,0.32,0.00,32.71,34.85,36.65,5.62,30.88,1012.46,2026.94,3273.00,3219.00,3487.99,349.06,311.29,24.30,0000 0000 0000 0000 000000
2013-07-13 00:51:35,0.00,0.32,0.00,32.76,34.85,36.71,5.67,30.79,1012.53,2026.92,3273.00,3219.00,3487.99,350.89,313.31,24.31,0000 0000 0000 0000 000000
2013-07-13 00:52:36,-0.01,0.32,0.00,32.77,34.85,36.75,5.77,30.42,1012.56,2026.91,3273.00,3219.00,3487.99,349.74,311.88,24.31,0000 0000 0000 0000 000000
2013-07-13 00:53:36,-0.01,0.32,0.00,32.77,34.85,36.66,5.83,30.96,1012.53,2026.82,3273.01,3219.00,3487.98,349.86,312.24,24.32,0000 0000 0000 0000 000000
2013-07-13 00:54:36,-0.07,0.32,0.00,32.77,34.85,36.46,5.77,30.42,1012.55,2026.73,3273.00,3219.00,3487.97,350.85,313.12,24.32,0000 0000 0000 0000 000000
2013-07-13 00:55:36,-0.03,0.32,0.00,32.74,34.85,36.47,5.77,30.88,1012.56,2026.76,3273.00,3219.00,3487.93,349.85,312.52,24.33,0000 0000 0000 0000 000000
2013-07-13 00:56:36,0.02,0.32,0.00,32.69,34.85,36.43,5.73,30.92,1012.46,2026.82,3273.00,3218.99,3487.92,349.12,311.63,24.34,0000 0000 0000 0000 000000
2013-07-13 00:57:37,0.03,0.32,0.00,32.66,34.85,36.33,5.73,31.00,1012.47,2026.75,3272.99,3218.99,3487.84,350.38,312.92,24.34,0000 0000 0000 0000 000000
2013-07-13 00:58:37,-0.10,0.32,0.00,32.66,34.85,36.45,5.82,31.04,1012.39,2026.61,3272.93,3218.97,3487.67,350.38,312.56,24.35,0000 0000 0000 0000 000000
2013-07-13 00:59:37,-0.05,0.32,0.00,32.67,34.86,36.54,5.58,31.04,1012.36,2026.59,3272.95,3218.97,3487.71,350.01,312.87,24.35,0000 0000 0000 0000 000000
2013-07-13 01:00:38,0.04,0.32,0.00,32.70,34.86,36.40,5.71,30.75,1012.40,2026.61,3272.96,3218.99,3487.72,350.43,312.62,24.36,0000 0000 0000 0000 000000
2013-07-13 01:01:38,0.00,0.32,0.00,32.76,34.87,36.43,5.64,30.83,1012.48,2026.54,3272.95,3218.96,3487.57,349.49,311.91,24.37,0000 0000 0000 0000 000000
2013-07-13 01:02:38,-0.05,0.32,0.00,32.76,34.87,36.46,5.67,30.92,1012.48,2026.56,3272.91,3218.91,3487.55,351.25,313.81,24.37,0000 0000 0000 0000 000000
2013-07-13 01:03:39,0.02,0.32,0.00,32.77,34.87,36.50,5.68,30.42,1012.49,2026.54,3272.90,3218.89,3487.48,349.92,312.35,24.38,0000 0000 0000 0000 000000
2013-07-13 01:04:39,0.01,0.32,0.00,32.72,34.87,36.59,5.67,30.92,1012.55,2026.37,3272.76,3218.86,3487.29,349.54,312.00,24.38,0000 0000 0000 0000 000000
2013-07-13 01:05:39,-0.05,0.32,0.00,32.70,34.87,36.48,5.63,30.88,1012.55,2026.31,3272.52,3218.74,3487.19,349.66,312.38,24.39,0000 0000 0000 0000 000000
2013-07-13 01:06:39,0.01,0.32,0.00,32.66,34.87,36.54,5.71,30.88,1012.52,2026.26,3272.31,3218.57,3487.08,349.82,312.09,24.39,0000 0000 0000 0000 000000
2013-07-13 01:07:39,0.02,0.32,0.00,32.67,34.88,36.54,5.80,30.92,1012.48,2026.25,3272.19,3218.38,3487.05,349.76,311.82,24.40,0000 0000 0000 0000 000000
2013-07-13 01:08:40,0.08,0.32,0.00,32.66,34.87,36.44,5.69,30.92,1012.49,2026.29,3272.16,3218.26,3487.02,350.15,312.24,24.41,0000 0000 0000 0000 000000
2013-07-13 01:09:40,0.05,0.32,0.00,32.66,34.88,36.58,5.79,30.83,1012.44,2026.19,3272.13,3218.26,3487.00,350.04,312.49,24.41,0000 0000 0000 0000 000000
2013-07-13 01:10:40,-0.06,0.32,0.00,32.67,34.88,36.51,5.81,30.96,1012.56,2026.19,3272.10,3218.20,3487.01,350.29,312.26,24.42,0000 0000 0000 0000 000000
2013-07-13 01:11:41,-0.01,0.32,0.00,32.65,34.89,36.47,5.82,30.96,1012.59,2026.14,3272.04,3218.14,3487.00,350.31,312.87,24.42,0000 0000 0000 0000 000000
2013-07-13 01:12:41,-0.01,0.32,0.00,32.68,34.90,36.56,5.58,30.92,1012.56,2026.10,3272.01,3218.06,3487.00,349.33,311.87,24.43,0000 0000 0000 0000 000000
2013-07-13 01:13:41,-0.01,0.32,0.00,32.66,34.90,36.59,5.57,30.92,1012.51,2026.04,3272.00,3218.03,3487.00,349.71,312.20,24.44,0000 0000 0000 0000 000000
2013-07-13 01:14:41,-0.02,0.32,0.00,32.65,34.90,36.43,5.79,30.88,1012.45,2026.03,3272.00,3218.01,3487.00,350.50,312.90,24.44,0000 0000 0000 0000 000000
2013-07-13 01:15:41,-0.01,0.32,0.00,32.65,34.90,36.45,5.74,30.79,1012.46,2026.03,3272.00,3218.00,3487.00,349.66,312.16,24.45,0000 0000 0000 0000 000000
2013-07-13 01:16:41,0.00,0.32,0.00,32.68,34.90,36.47,5.80,30.92,1012.46,2026.02,3272.00,3218.00,3486.99,350.61,312.97,24.45,0000 0000 0000 0000 000000
2013-07-13 01:17:41,0.00,0.32,0.00,32.69,34.90,36.38,5.69,30.83,1012.44,2026.03,3272.00,3218.00,3486.96,349.21,311.70,24.46,0000 0000 0000 0000 000000
2013-07-13 01:18:42,0.01,0.32,0.00,32.70,34.90,36.46,5.72,30.71,1012.44,2026.05,3272.00,3218.01,3486.98,350.97,313.28,24.46,0000 0000 0000 0000 000000
2013-07-13 01:19:42,0.01,0.32,0.00,32.75,34.90,36.43,5.77,30.75,1012.39,2026.06,3272.00,3218.00,3486.96,350.13,312.36,24.47,0000 0000 0000 0000 000000
2013-07-13 01:20:42,0.01,0.32,0.00,32.81,34.91,36.53,5.88,30.75,1012.36,2026.06,3272.00,3218.00,3486.95,350.96,312.67,24.48,0000 0000 0000 0000 000000
2013-07-13 01:21:42,0.00,0.32,0.00,32.80,34.92,36.57,5.67,30.63,1012.38,2026.03,3272.00,3218.00,3486.86,350.22,312.96,24.48,0000 0000 0000 0000 000000
2013-07-13 01:22:43,0.00,0.32,0.00,32.76,34.92,36.59,5.63,30.92,1012.47,2026.02,3271.99,3218.00,3486.77,350.32,312.63,24.49,0000 0000 0000 0000 000000
2013-07-13 01:23:43,-0.01,0.32,0.00,32.79,34.92,36.50,5.76,30.75,1012.48,2026.04,3271.96,3218.00,3486.74,350.19,312.51,24.49,0000 0000 0000 0000 000000
2013-07-13 01:24:43,0.02,0.32,0.00,32.84,34.92,36.55,5.61,30.71,1012.49,2026.02,3271.96,3218.00,3486.62,349.23,311.59,24.50,0000 0000 0000 0000 000000
2013-07-13 01:25:43,0.00,0.32,0.00,32.85,34.92,36.56,5.71,30.83,1012.58,2026.01,3271.95,3217.99,3486.47,349.21,311.59,24.51,0000 0000 0000 0000 000000
2013-07-13 01:26:43,0.01,0.32,0.00,32.88,34.92,36.55,5.88,30.83,1012.62,2026.00,3271.91,3217.97,3486.39,350.86,313.05,24.51,0000 0000 0000 0000 000000
2013-07-13 01:27:43,0.00,0.32,0.00,32.91,34.93,36.58,5.83,30.88,1012.58,2026.00,3271.93,3217.98,3486.34,350.91,312.90,24.52,0000 0000 0000 0000 000000
2013-07-13 01:28:43,0.00,0.32,0.00,32.92,34.93,36.59,5.75,31.00,1012.66,2026.00,3271.89,3217.99,3486.23,349.28,312.11,24.52,0000 0000 0000 0000 000000
2013-07-13 01:29:43,0.02,0.32,0.00,32.93,34.94,36.61,5.67,30.88,1012.63,2026.00,3271.85,3217.98,3486.21,350.70,312.86,24.53,0000 0000 0000 0000 000000
2013-07-13 01:30:44,0.00,0.32,0.00,32.94,34.94,36.63,5.76,30.96,1012.63,2026.00,3271.84,3217.96,3486.17,350.70,313.28,24.54,0000 0000 0000 0000 000000
2013-07-13 01:31:44,0.02,0.32,0.00,32.92,34.95,36.67,5.71,30.96,1012.62,2026.00,3271.71,3217.95,3486.11,349.99,312.37,24.54,0000 0000 0000 0000 000000
2013-07-13 01:32:44,0.02,0.32,0.00,32.95,34.95,36.61,5.75,30.96,1012.59,2026.00,3271.57,3217.93,3486.05,349.72,312.12,24.55,0000 0000 0000 0000 000000
2013-07-13 01:33:44,0.03,0.32,0.00,32.94,34.95,36.63,5.56,30.63,1012.61,2026.00,3271.58,3217.94,3486.04,349.67,311.84,24.55,0000 0000 0000 0000 000000
2013-07-13 01:34:44,-0.01,0.32,0.00,32.86,34.95,36.71,5.62,30.92,1012.65,2026.00,3271.54,3217.87,3486.02,349.52,311.88,24.56,0000 0000 0000 0000 000000
2013-07-13 01:35:44,0.03,0.32,0.00,32.85,34.95,36.65,5.69,30.71,1012.67,2026.00,3271.44,3217.86,3486.01,350.39,312.39,24.56,0000 0000 0000 0000 000000
2013-07-13 01:36:45,0.00,0.32,0.00,32.85,34.95,36.48,5.71,30.21,1012.61,2026.00,3271.34,3217.87,3486.01,350.06,311.74,24.57,0000 0000 0000 0000 000000
2013-07-13 01:37:45,0.02,0.32,0.00,32.87,34.96,36.63,5.57,31.04,1012.63,2026.00,3271.35,3217.86,3486.00,349.19,311.46,24.58,0000 0000 0000 0000 000000
2013-07-13 01:38:45,0.00,0.32,0.00,32.93,34.96,36.56,5.75,30.88,1012.63,2026.00,3271.22,3217.64,3486.00,349.85,311.83,24.58,0000 0000 0000 0000 000000
2013-07-13 01:39:45,0.07,0.32,0.00,32.97,34.97,36.61,5.75,31.00,1012.65,2026.00,3271.10,3217.43,3486.00,350.25,312.11,24.59,0000 0000 0000 0000 000000
2013-07-13 01:40:45,0.05,0.32,0.00,32.95,34.97,36.61,5.66,30.83,1012.70,2026.00,3271.09,3217.55,3486.00,349.82,312.12,24.59,0000 0000 0000 0000 000000
2013-07-13 01:41:45,-0.02,0.32,0.00,32.89,34.97,36.71,5.81,30.92,1012.71,2026.00,3271.04,3217.35,3486.00,350.00,311.66,24.60,0000 0000 0000 0000 000000
2013-07-13 01:42:46,0.06,0.32,0.00,32.86,34.97,36.68,5.65,30.83,1012.71,2026.00,3271.01,3217.15,3486.00,349.57,311.93,24.61,0000 0000 0000 0000 000000
2013-07-13 01:43:46,0.04,0.32,0.00,32.84,34.97,36.71,5.64,30.75,1012.71,2026.00,3271.00,3217.06,3485.99,349.58,311.96,24.61,0000 0000 0000 0000 000000
2013-07-13 01:44:46,0.02,0.32,0.00,32.85,34.98,36.71,5.59,30.79,1012.71,2026.00,3271.00,3217.02,3485.96,348.98,311.42,24.62,0000 0000 0000 0000 000000
2013-07-13 01:45:46,0.01,0.32,0.00,32.91,34.99,36.70,5.78,30.83,1012.71,2026.00,3271.00,3217.02,3485.94,350.37,312.91,24.62,0000 0000 0000 0000 000000
2013-07-13 01:46:46,0.00,0.32,0.00,32.97,34.99,36.72,5.67,30.83,1012.71,2026.00,3271.00,3217.01,3485.90,349.53,312.19,24.63,0000 0000 0000 0000 000000
2013-07-13 01:47:47,0.01,0.32,0.00,32.99,35.00,36.70,5.82,30.71,1012.71,2026.00,3271.00,3217.00,3485.89,350.72,312.83,24.63,0000 0000 0000 0000 000000
2013-07-13 01:48:47,0.00,0.32,0.00,33.03,35.00,36.71,5.75,30.75,1012.71,2026.00,3271.00,3217.01,3485.89,349.97,312.12,24.64,0000 0000 0000 0000 000000
2013-07-13 01:49:47,0.00,0.32,0.00,33.03,35.00,36.69,5.81,30.79,1012.71,2026.00,3271.00,3217.01,3485.79,350.90,312.94,24.65,0000 0000 0000 0000 000000
2013-07-13 01:50:47,0.01,0.32,0.00,33.03,35.00,36.69,5.64,30.71,1012.71,2026.00,3270.99,3217.00,3485.63,350.07,312.41,24.65,0000 0000 0000 0000 000000
2013-07-13 01:51:47,0.02,0.32,0.00,33.04,35.00,36.68,5.73,30.38,1012.71,2026.00,3270.99,3217.00,3485.74,350.50,312.59,24.66,0000 0000 0000 0000 000000
2013-07-13 01:52:47,-0.02,0.32,0.00,33.03,35.00,36.68,5.71,30.88,1012.71,2026.00,3270.98,3217.00,3485.66,349.71,311.88,24.66,0000 0000 0000 0000 000000
2013-07-13 01:53:47,0.02,0.32,0.00,33.06,35.00,36.74,5.68,30.83,1012.71,2026.00,3270.96,3217.00,3485.45,348.64,311.22,24.67,0000 0000 0000 0000 000000
2013-07-13 01:54:48,0.02,0.32,0.00,32.99,35.02,36.70,5.75,30.79,1012.72,2025.99,3270.86,3217.00,3485.29,349.72,311.93,24.68,0000 0000 0000 0000 000000
2013-07-13 01:55:48,0.02,0.32,0.00,32.92,35.02,36.56,5.63,30.58,1012.71,2025.99,3270.76,3216.99,3485.19,350.01,312.26,24.68,0000 0000 0000 0000 000000
2013-07-13 01:56:48,0.02,0.32,0.00,32.90,35.02,36.49,5.67,30.67,1012.71,2025.99,3270.64,3216.98,3485.15,349.84,312.13,24.69,0000 0000 0000 0000 000000
2013-07-13 01:57:48,0.02,0.32,0.00,32.91,35.02,36.45,5.92,30.92,1012.71,2025.99,3270.59,3216.97,3485.06,350.89,313.07,24.69,0000 0000 0000 0000 000000
2013-07-13 01:58:48,0.01,0.32,0.00,32.90,35.02,36.46,5.68,30.75,1012.71,2025.98,3270.45,3216.94,3485.03,350.25,312.50,24.70,0000 0000 0000 0000 000000
2013-07-13 01:59:49,0.03,0.32,0.00,32.90,35.03,36.60,5.68,30.63,1012.71,2025.98,3270.26,3216.95,3485.01,350.07,312.18,24.70,0000 0000 0000 0000 000000
2013-07-13 02:00:49,0.01,0.32,0.00,32.91,35.03,36.61,5.80,30.88,1012.71,2025.98,3270.15,3216.92,3485.00,350.99,313.17,24.71,0000 0000 0000 0000 000000
2013-07-13 02:01:49,0.01,0.32,0.00,32.92,35.04,36.68,5.81,31.04,1012.71,2025.97,3270.08,3216.89,3485.00,350.49,312.70,24.72,0000 0000 0000 0000 000000
2013-07-13 02:02:49,0.00,0.32,0.00,32.93,35.05,36.67,5.75,30.67,1012.71,2025.95,3270.10,3216.78,3485.00,350.30,312.52,24.72,0000 0000 0000 0000 000000
2013-07-13 02:03:49,0.00,0.32,0.00,32.93,35.05,36.69,5.77,30.88,1012.72,2025.96,3270.05,3216.54,3485.00,349.85,312.12,24.73,0000 0000 0000 0000 000000
2013-07-13 02:04:49,0.08,0.32,0.00,32.92,35.05,36.67,5.65,30.96,1012.71,2025.95,3270.02,3216.37,3485.00,349.44,311.76,24.73,0000 0000 0000 0000 000000
2013-07-13 02:05:50,0.01,0.32,0.00,32.92,35.05,36.81,5.82,30.92,1012.71,2025.93,3270.00,3216.29,3484.99,350.09,312.45,24.74,0000 0000 0000 0000 000000
2013-07-13 02:06:50,0.00,0.32,0.00,32.94,35.05,36.70,5.67,30.96,1012.71,2025.94,3270.00,3216.19,3484.97,349.42,311.84,24.75,0000 0000 0000 0000 000000
2013-07-13 02:07:50,0.03,0.32,0.00,32.93,35.05,36.62,5.81,30.88,1012.71,2025.92,3270.00,3216.13,3484.98,349.57,311.64,24.75,0000 0000 0000 0000 000000
2013-07-13 02:08:50,0.00,0.32,0.00,32.92,35.06,36.56,5.63,30.79,1012.71,2025.85,3270.00,3216.11,3484.99,349.85,312.46,24.76,0000 0000 0000 0000 000000
2013-07-13 02:09:51,-0.07,0.32,0.00,33.02,35.07,36.71,5.61,30.75,1012.71,2025.81,3269.99,3216.06,3484.97,350.53,312.62,24.76,0000 0000 0000 0000 000000
2013-07-13 02:10:51,0.00,0.32,0.00,33.06,35.07,36.73,5.80,30.58,1012.71,2025.81,3269.99,3216.04,3484.84,350.06,312.17,24.77,0000 0000 0000 0000 000000
2013-07-13 02:11:51,0.02,0.32,0.00,32.99,35.07,36.80,5.82,30.88,1012.71,2025.83,3269.98,3216.03,3484.72,349.96,312.15,24.77,0000 0000 0000 0000 000000
2013-07-13 02:12:51,0.02,0.32,0.00,32.99,35.07,36.70,5.63,30.83,1012.71,2025.77,3269.95,3216.01,3484.51,349.26,311.53,24.78,0000 0000 0000 0000 000000
2013-07-13 02:13:51,-0.01,0.32,0.00,32.99,35.07,36.84,5.78,30.83,1012.71,2025.71,3269.88,3216.00,3484.32,350.91,313.19,24.79,0000 0000 0000 0000 000000
2013-07-13 02:14:52,-0.04,0.32,0.00,32.99,35.09,36.77,5.79,30.79,1012.71,2025.63,3269.85,3216.00,3484.21,350.04,312.22,24.79,0000 0000 0000 0000 000000
2013-07-13 02:15:52,-0.05,0.32,0.00,33.00,35.09,36.64,5.81,30.71,1012.71,2025.56,3269.81,3216.00,3484.15,350.66,312.84,24.80,0000 0000 0000 0000 000000
2013-07-13 02:16:52,-0.01,0.32,0.00,33.00,35.10,36.63,5.67,30.54,1012.71,2025.60,3269.75,3216.00,3484.09,349.14,311.26,24.80,0000 0000 0000 0000 000000
2013-07-13 02:17:52,0.06,0.32,0.00,33.00,35.10,36.78,5.64,30.88,1012.71,2025.64,3269.63,3216.00,3484.09,350.40,312.30,24.81,0000 0000 0000 0000 000000
2013-07-13 02:18:52,0.03,0.32,0.00,33.06,35.10,36.74,5.67,30.63,1012.72,2025.49,3269.54,3216.00,3484.04,349.37,311.56,24.82,0000 0000 0000 0000 000000
2013-07-13 02:19:53,-0.11,0.32,0.00,33.14,35.10,36.87,5.73,31.13,1012.72,2025.48,3269.43,3215.99,3484.03,349.93,311.73,24.82,0000 0000 0000 0000 000000
2013-07-13 02:20:53,0.04,0.32,0.00,33.18,35.10,36.88,5.79,30.92,1012.72,2025.45,3269.41,3215.98,3484.00,350.20,311.94,24.83,0000 0000 0000 0000 000000
2013-07-13 02:21:53,-0.04,0.32,0.00,33.17,35.11,36.92,5.78,30.83,1012.72,2025.38,3269.33,3215.99,3484.00,350.78,312.43,24.83,0000 0000 0000 0000 000000
2013-07-13 02:22:53,-0.04,0.32,0.00,33.22,35.12,36.89,5.94,30.88,1012.72,2025.30,3269.27,3215.98,3484.00,350.61,312.24,24.84,0000 0000 0000 0000 000000
2013-07-13 02:23:54,-0.07,0.32,0.00,33.22,35.12,36.83,5.80,30.38,1012.71,2025.27,3269.22,3215.97,3484.00,349.72,311.58,24.84,0000 0000 0000 0000 000000
2013-07-13 02:24:54,0.00,0.32,0.00,33.22,35.12,36.88,5.86,30.83,1012.72,2025.24,3269.08,3215.96,3484.00,350.48,312.49,24.85,0000 0000 0000 0000 000000
2013-07-13 02:25:54,-0.00,0.32,0.00,33.19,35.12,36.81,5.75,30.92,1012.72,2025.23,3269.04,3215.94,3484.00,350.42,312.13,24.86,0000 0000 0000 0000 000000
2013-07-13 02:26:54,-0.01,0.32,0.00,33.19,35.12,36.90,5.70,30.75,1012.71,2025.17,3269.02,3215.85,3484.00,349.66,311.69,24.86,0000 0000 0000 0000 000000
2013-07-13 02:27:54,-0.01,0.32,0.00,33.21,35.13,36.90,5.78,30.79,1012.71,2025.12,3269.00,3215.57,3483.99,350.67,312.57,24.87,0000 0000 0000 0000 000000
2013-07-13 02:28:54,0.04,0.32,0.00,33.25,35.14,36.84,5.81,30.75,1012.71,2025.05,3269.00,3215.36,3483.96,350.07,312.05,24.87,0000 0000 0000 0000 000000
2013-07-13 02:29:55,-0.02,0.32,0.00,33.28,35.15,36.94,5.78,30.67,1012.72,2025.03,3269.00,3215.28,3483.96,350.13,312.31,24.88,0000 0000 0000 0000 000000
2013-07-13 02:30:55,0.01,0.32,0.00,33.29,35.15,36.80,5.78,30.83,1012.73,2025.07,3269.00,3215.30,3483.92,350.78,312.23,24.89,0000 0000 0000 0000 000000
2013-07-13 02:31:55,0.03,0.32,0.00,33.30,35.15,36.91,5.79,30.88,1012.74,2025.07,3269.00,3215.16,3483.87,350.47,312.30,24.89,0000 0000 0000 0000 000000
2013-07-13 02:32:55,0.03,0.32,0.00,33.28,35.15,36.86,5.77,30.79,1012.75,2025.05,3269.00,3215.09,3483.86,350.31,312.13,24.90,0000 0000 0000 0000 000000
2013-07-13 02:33:55,0.00,0.32,0.00,33.25,35.15,36.89,5.76,30.79,1012.78,2025.05,3269.00,3215.05,3483.73,349.90,311.98,24.90,0000 0000 0000 0000 000000
2013-07-13 02:34:56,0.02,0.32,0.00,33.24,35.17,36.80,5.77,30.83,1012.83,2025.04,3269.00,3215.04,3483.67,349.84,311.83,24.91,0000 0000 0000 0000 000000
2013-07-13 02:35:56,0.00,0.32,0.00,33.23,35.17,36.91,5.80,30.75,1012.88,2025.03,3268.99,3215.02,3483.56,350.15,312.13,24.92,0000 0000 0000 0000 000000